Location: Eaton Estates
(41.3089°N, 82.0057°W)
Time: 09:17:04
(UTC+00:00)

NOAA 18 - Pass Details

Date: 03 April 2023
Orbit: 838 x 860 km, 98.9° (Epoch: 03 June)

Event Time Altitude Azimuth Distance (km) Brightness Sun altitude
Exits shadow 02:00:36 18° 53° (NE) 1,970 6.9 -23.2°
Drops below altitude 10° 02:03:44 10° 18° (NNE) 2,506 7.8 -23.7°
Sets 02:06:47 0° 2° (N) 3,446 8.8 -24.2°
